Regional Weather Roundup
Issued by NWS

Home | Current Version | Previous Version | Graphics & Text | Print | Product List | Glossary On
Versions: 1 2 3 4 5 6 7 8 9 10 11 12 13 14 15 16 17 18 19 20 21 22 23 24 25 26 27 28 29 30 31 32 33 34 35 36 37 38 39 40 41 42 43 44 45 46 47 48 49 50
000
ASUS45 KABQ 242201
RWRNM
WEATHER ROUNDUP FOR NEW MEXICO
NATIONAL WEATHER SERVICE ALBUQUERQUE NM
300 PM MST SAT JAN 24 2015

NOTE: "FAIR" MEANS FEW OR NO CLOUDS BELOW 12,000 FEET AGL WITH NO
       SIGNIFICANT WEATHER OR OBSTRUCTIONS TO VISION.

      THIS PRODUCT IS RELEASED AS TWO VERSIONS.  ONE VERSION NEAR
      THE TOP OF THE HOUR CONTAINING PRELIMINARY DATA FROM ALBUQUERQUE
      AND OTHER STATIONS.  A FINAL VERSION WITH ADDITIONAL DATA IS
      ISSUED ABOUT 10 MINUTES AFTER THE HOUR.

NMZ501-503-504-510>518-242300-
NORTHWEST PLATEAU/NORTHCENTRAL MOUNTAINS

CITY           SKY/WX    TMP DP  RH WIND       PRES   REMARKS
FARMINGTON     SUNNY     43  15  32 W12       30.26F
SANTA FE       SUNNY     44  21  40 W10       30.19F
TAOS           PTSUNNY   41  16  36 CALM      30.22F

$$
NMZ402-403-502-505>509-242300-
WESTCENTRAL MOUNTAINS/SOUTHWEST MOUNTAINS

CITY           SKY/WX    TMP DP  RH WIND       PRES   REMARKS
GALLUP         SUNNY     49  17  28 NW3       30.26F
GRANTS         SUNNY     47  19  32 N8        30.26F
SILVER CITY    SUNNY     52   3  14 S6        30.24R

$$
NMZ407-409-411-412-242300-
SOUTHERN DESERTS

CITY           SKY/WX    TMP DP  RH WIND       PRES   REMARKS
DEMING         SUNNY     52  19  27 E7        30.21F
HOLLOMAN AFB   MOSUNNY   45  31  58 NW9       30.21F
ALAMOGORDO     MOSUNNY   52  28  40 NW13      30.21F
T OR C         SUNNY     51  20  29 SE5       30.22F

$$
NMZ519>523-242300-
CENTRAL VALLEYS/CENTRAL HIGHLANDS

CITY           SKY/WX    TMP DP  RH WIND       PRES   REMARKS
ALBUQUERQUE    MOSUNNY   49  19  30 CALM      30.23F
DOUBLE EAGLE   MOSUNNY   46  18  31 W6        30.24F
MORIARTY ARPT  FAIR      47  20  34 NW14      30.20S
CLINES CORNERS SUNNY     40  21  46 NW29G37   30.12F WCI  29
BELEN          FAIR      49  20  32 W5        30.23F
SOCORRO        NOT AVBL

$$
NMZ524>526-539-540-242300-
SOUTHCENTRAL MOUNTAINS

CITY           SKY/WX    TMP DP  RH WIND       PRES   REMARKS
RUIDOSO        NOT AVBL

$$
NMZ527>531-242300-
NORTHEAST HIGHLANDS/NORTHEAST PLAINS

CITY           SKY/WX    TMP DP  RH WIND       PRES   REMARKS
LAS VEGAS      LGT RAIN  50  13  22 N15G24    30.06F
RATON          MOSUNNY   46  21  37 SW3       30.01F
CLAYTON        SUNNY     47  28  47 W10       29.97F

$$
NMZ532>537-242300-
EASTCENTRAL PLAINS

CITY           SKY/WX    TMP DP  RH WIND       PRES   REMARKS
TUCUMCARI      SUNNY     45  29  53 SW8       29.99F
CANNON AFB     SUNNY     41  31  66 W12       30.04F
CLOVIS AIRPORT SUNNY     43  30  61 SW18      30.03F

$$
NMZ028-029-538-242300-
SOUTHEAST PLAINS

CITY           SKY/WX    TMP DP  RH WIND       PRES   REMARKS
ROSWELL        MOSUNNY   48  31  51 S5        30.13F
ARTESIA        MOSUNNY   50  36  57 SE7       30.15F
CARLSBAD       MOSUNNY   59  30  33 S8        30.13F
HOBBS          SUNNY     54  27  35 SW14      30.14F


$$



USA.gov is the U.S. government's official web portal to all federal, state and local government web resources and services.